THORAD AGENA D DEB, 4643

Orbit data source: Space-Track

THORAD AGENA D DEB, 4643 is space debris in SSO originally from a launch on Wed, 08 Apr 1970 UTC launched from the Air Force Western Test Range (AFWTR). Debris objects in space refer to the collection of defunct objects orbiting the Earth. Examples of debris include non-operational satellites, rocket bodies, and fragments generated from explosions, collisions, or faulty payload assembly.

Loading next visibility...
Identifier
4643, 1970-025AB
Orbit
SSO
Country
Flag of USUS
Related business
Manufacturer
Unknown
Mission
Spacecraft
Bus & Motor
Unknown
Mass
Unknown
Launch date (UTC)
1970-04-08 (56 years ago)
Launch vehicle
Unknown
Launch site
Air Force Western Test Range (AFWTR)
Object type
Payload
Rocket body
Debris
Shape & HBR
Unknown shape, 0.2 m
Radar Cross Section
Medium (>0.1 m² and <1 m²)

Expand to show TLE details & history
Last TLE update: 8 hours ago

TLE from 8 hours ago
0 THORAD AGENA D DEB
1  4643U 70025AB  26256.02493866  .00000087  00000-0  18614-3 0  9998
2  4643  99.3807 100.0862 0011116   2.3402 154.3891 13.55268434783700
Epoch: 2026-09-13T00:35Z
TLE epoch observation values (Epoch: 2026-09-13T00:35:54.700Z)
Latitude
22.90609°
Longitude
-76.93506°
Altitude
1,063.071 km
Speed
7.319 km/s
True Right ascension
18h 56m 16s
True Declination
22° 47' 17"
Sunlit
Object was in daylight at epoch
Visualization orbit readout
Latitude
Unknown
Longitude
Unknown
Altitude
Unknown
Speed
Unknown
Apparent Right ascension
Unknown
Apparent Declination
Unknown
Sunlit
N/A
Visualization observer readout
Local Sidereal Time
01:27:50
Azimuth
Unknown
Elevation
Unknown
Doppler factor
Unknown
Orbital elements
Apogee altitude
1,058.473 km
Perigee altitude
1,041.958 km
Semi-major axis
7,428.353 km
Eccentricity
0.00111
Inclination
99.3807°
RAAN
100.0862°
Arg. of periapsis
2.3402°
True anomaly
154.44409°
Mean anomaly
154.3891°
Eccentric anomaly
154.4166°
Mean motion
3.39004 °/min
Orbital period
106.19 mins
BSTAR
0.00018614
Loading maneuver chart data...
Computing Atmospheric mass density...

Documentation

Showing up to 5 results
|